{"data":{"norad_id":65611,"epoch":"2026-05-25T03:51:38.666880Z","epoch_age_seconds":57238,"freshness":"FRESH","line1":"1 65611U 25207V   26145.16086420  .00002825  00000+0  19971-3 0  9996","line2":"2 65611  97.4469 213.6045 0001839 128.9097 231.2294 15.05655168 39768","mean_motion":15.05655168,"eccentricity":0.0001839,"inclination_deg":97.4469,"raan_deg":213.6045,"arg_perigee_deg":128.9097,"mean_anomaly_deg":231.2294,"bstar":0.00019971,"rev_number":3976,"period_min":95.639428642402,"perigee_km":548.22131017652,"apogee_km":550.76929333711,"semimajor_km":6927.6323017568,"source":"CELESTRAK","updated_at":"2026-05-25T13:38:20.856157Z"}}